P/2009 Y2 (Kowalski)
T 2010 Mar. 30.71423 TT                                 Nakano
q   2.3389675            (2000.0)            P               Q
n   0.05942771     Peri.  171.96946     +0.25550857     -0.83094722
a   6.5034434      Node   262.13040     +0.85699573     +0.43127596
e   0.6403494      Incl.   29.92772     +0.44751949     -0.35146518
P  16.58 (+/- 1.27 days)
From 112 observations 2009 Dec. 20-2010 Jan. 18.
Residuals in seconds of arc 
2009/                     091220 A24  1.1-  0.2+    100103 215  0.2-  0.5-  
091220 703  0.6-  0.9+    091220 A24  0.3-  0.1-    100103 215  0.3-  0.5-  
091220 703  1.5+  1.2-    091220 A24  0.5-  1.9-    100104 C10  0.1-  0.3+  
091220 703  0.5-  0.0     091220 473  0.1+  0.2-    100104 C10  0.1-  0.1-  
091220 703  0.1+  1.2+    091220 473  0.3+  0.4-    100104 C10  0.4-  0.0   
091220 703  0.8+  0.7+    091220 J95  0.2+  0.2+    100104 C10  0.7-  0.3+  
091220 703  0.5+  0.7+    091220 J95  0.1+  0.2+    100104 C10  0.0   0.3+  
091220 703  1.1-  0.7+    091220 J95  0.4+  0.2+    100104 C10  0.1-  0.2-  
091220 703  0.9+  0.6+    091220 J95  0.2+  0.1+    100104 C10  0.0   0.2+  
091220 H01  0.2-  0.2-    091221 H01  0.4-  0.0     100104 C10  0.4+  0.2+  
091220 H01  0.1-  0.1-    091221 H01  0.4-  0.1-    100106 704  0.3+  0.7+  
091220 G96  0.5+  0.2+    091221 H01  0.4-  0.1-    100106 704  0.4+  1.2+  
091220 G96  0.0   0.2+    091221 H01  0.3-  0.0     100106 704  0.1-  0.6+  
091220 G96  0.0   0.8+    091221 300  0.2+  0.5-    100106 704  0.9+  0.0   
091220 G96  0.0   0.4+    091221 300  0.4+  0.0     100106 A77  0.4-  0.1+  
091220 G96  0.3-  0.0     091221 300  0.0   0.4+    100106 A77  1.2+  0.1-  
091220 G96  0.2-  0.0     091221 300  0.5+  0.6+    100106 A77  0.3+  0.3+  
091220 H01  0.2-  0.0     091221 300  0.8+  0.3-    100107 372  1.0-  0.2+  
091220 G96  0.1-  0.0     091223 349  0.6+  1.3-    100107 372  1.3-  0.0   
091220 G96  0.4-  0.2-    091223 349  0.2+  1.4-    100109 372  0.1+  0.1-  
091220 H01  0.2-  0.1-    091223 349  0.1-  0.7-    100109 372  1.1+  0.7+  
091220 H01  0.2-  0.1-    091225 A77  0.9-  0.3-    100109 372  1.1-  0.4+  
091220 G96  1.0-  0.2-    091225 A77  0.4-  0.7-    100110 A77  0.0   0.1-  
091220 G96  0.4-  0.2+    091225 A77  0.0   0.4-    100110 A77  0.5+  0.9+  
091220 G96  1.1-  0.2-    091226 B82 (2.6+  1.0-)   100110 A77  0.3+  0.4+  
091220 G96  0.5-  0.1-    091226 B82  0.7+  0.9-    100115 A77  0.5+  0.2+  
091220 900  0.6-  0.5-    091226 B82  0.3+  0.3-    100115 A77  1.1-  0.0   
091220 300  0.8+  0.3+    091228 118  0.1+  0.4-    100115 A77  0.1+  0.3-  
091220 300  0.6+  0.3+    091228 118  0.0   0.1-    100116 349  0.1-  0.0   
091220 900  0.5+  0.9+    091228 118  0.1+  0.0     100116 349  0.4+  0.5+  
091220 900  0.0   0.0     091228 461  0.3-  0.2-    100116 A71  0.1+  0.3-  
091220 300  1.0+  0.6+    091228 461  0.4-  0.6-    100117 A77  0.4+  0.5+  
091220 300  0.8+  0.1-    091228 461  0.0   1.0+    100117 A77  0.9+  0.4-  
091220 J95  0.4+  0.1+    091230 349  0.7+  0.9-    100118 A77  0.2+  0.1-  
091220 J95  0.3+  0.0     091230 349  0.1-  0.4-    100118 A77  0.3+  0.2-  
091220 A24  1.3-  0.1-    2010/                     100118 160  1.0-  0.9-  
091220 A24  0.2-  0.4+    100101 213  0.0   0.6+    100118 160  0.7-  0.9-  
091220 J95  0.1+  0.4+    100101 213  0.3-  0.3+    100118 160 (2.1-  2.1-) 
091220 A24  0.7+  1.0-    100103 215  0.0   0.6-                            

NAKANO
         **** Don't distribute anyone except personal use only ****
           (C) Copyright 2010 Orbit.Astro.Assoc./ComputingSection
write mail from CFAD0::NAKANO on 2010-01-27 08:20:36(JST).
 
◎P/2009 Y2の軌道と予報位置

 上尾の門田健一氏の観測によると,彗星のCCD全光度は,12月23日に18.6等,
30日に18.8等でした.

    P/2009 Y2 (Kowalski)
T 2010 Mar. 30.70829 TT                                 Nakano
q   2.3386208            (2000.0)            P               Q
n   0.06035789     Peri.  171.93562     +0.25561555     -0.83100356
a   6.4364541      Node   262.15406     +0.85684599     +0.43140925
e   0.6366601      Incl.   29.91583     +0.44774506     -0.35116825
P  16.33 (+/- 6.53 days)
From 75 observations 2009 Dec. 20-2010 Jan. 3.
 
Date/        TT  R.A.(2000) Decl.     Delta   r     Daily motion  Mag.  Moon Age
              h    h  m       。  ,                      ,  / PA 。  m1      。
2010 Jan.  1 12  00 52.88  +29 08.6   2.065  2.467    20.2 / 119  18.5   87  .99
           2 12  00 54.22  +28 58.6   2.073  2.464    20.4 / 119  18.5  101  .96
           3 12  00 55.58  +28 48.8   2.081  2.462    20.5 / 118  18.5  115  .89
           4 12  00 56.96  +28 39.2   2.090  2.459    20.7 / 117  18.5  129  .81
           5 12  00 58.35  +28 29.8   2.098  2.456    20.8 / 116  18.5  142  .71
           6 12  00 59.77  +28 20.6   2.106  2.454    20.9 / 116  18.5  155  .60
           7 12  01 01.20  +28 11.5   2.115  2.451    21.1 / 115  18.5  164  .49
           8 12  01 02.64  +28 02.6   2.124  2.448    21.2 / 114  18.5  165  .39
           9 12  01 04.11  +27 54.0   2.132  2.446    21.4 / 113  18.5  157  .29
          10 12  01 05.58  +27 45.4   2.141  2.443    21.5 / 113  18.5  147  .20
          11 12  01 07.08  +27 37.1   2.150  2.441    21.7 / 112  18.5  135  .13
          12 12  01 08.59  +27 29.0   2.159  2.438    21.8 / 111  18.5  124  .07
          13 12  01 10.12  +27 21.0   2.168  2.436    22.0 / 111  18.5  113  .03
          14 12  01 11.66  +27 13.2   2.177  2.433    22.1 / 110  18.6  101  .01
          15 12  01 13.22  +27 05.5   2.186  2.431    22.3 / 109  18.6   90  .00
          16 12  01 14.79  +26 58.1   2.195  2.428    22.4 / 109  18.6   79  .01
          17 12  01 16.37  +26 50.8   2.204  2.426    22.6 / 108  18.6   67  .04
          18 12  01 17.97  +26 43.7   2.213  2.424    22.7 / 108  18.6   56  .09
          19 12  01 19.59  +26 36.7   2.222  2.421    22.9 / 107  18.6   45  .15
          20 12  01 21.21  +26 29.9   2.232  2.419    23.0 / 107  18.6   34  .22
          21 12  01 22.85  +26 23.3   2.241  2.417    23.2 / 106  18.6   23  .31
          22 12  01 24.51  +26 16.8   2.251  2.415    23.3 / 106  18.6   14  .40
          23 12  01 26.17  +26 10.5   2.260  2.412    23.4 / 105  18.6   11  .50
          24 12  01 27.85  +26 04.3   2.270  2.410    23.6 / 105  18.6   20  .61
          25 12  01 29.54  +25 58.3   2.279  2.408    23.7 / 104  18.6   31  .71
          26 12  01 31.25  +25 52.5   2.289  2.406    23.8 / 104  18.6   44  .81
          27 12  01 32.96  +25 46.7   2.298  2.404    24.0 / 103  18.6   58  .89
          28 12  01 34.69  +25 41.2   2.308  2.402    24.1 / 103  18.6   72  .95
          29 12  01 36.42  +25 35.7   2.318  2.400    24.2 / 103  18.6   87  .99
          30 12  01 38.17  +25 30.4   2.327  2.398    24.4 / 102  18.6  102 1.00
          31 12  01 39.93  +25 25.2   2.337  2.396    24.5 / 102  18.6  117  .98
     Feb.  1 12  01 41.70  +25 20.2   2.347  2.394    24.6 / 101  18.6  131  .92
NAKANO
         **** Don't distribute anyone except personal use only ****
           (C) Copyright 2010 Orbit.Astro.Assoc./ComputingSection
write mail from CFAD0::NAKANO on 2010-01-09 07:06:13(JST).
 

戻ります。